Weather History for New Delhi, India

Change the Weather History Date:

Wednesday, January 22, 2014

  Actual Average Record
Temperature  
Mean Temperature 58 °F -  
Max Temperature 62 °F 71 °F - (-1)
Min Temperature 55 °F 49 °F - (-1)
Degree Days  
Heating Degree Days 6    
Growing Degree Days 8 (Base 50)    
Moisture  
Dew Point 58 °F    
Average Humidity 99    
Maximum Humidity 100    
Minimum Humidity 94    
Precipitation  
Precipitation 0.00 in - - ()
Sea Level Pressure  
Sea Level Pressure 30.09 in    
Wind  
Wind Speed 5 mph ()    
Max Wind Speed 10 mph    
Max Gust Speed -    
Visibility 1.1 miles    
Events Fog , Rain    
Averages and records for this station are not official NWS values.
T = Trace of Precipitation, MM = Missing Value Source: Averaged Metar Reports

Daily Weather History Graph

Daily Weather History Graph

Search for Another Location

Airport:

Trip Planner

Search our weather history database for the weather conditions in past years. The results will help you decide how hot, cold, wet, or windy it might be!

Date:

Astronomy

Jan. 22, 2014 Rise Set
Actual Time 7:13 AM IST 5:52 PM IST
Civil Twilight 6:48 AM IST 6:17 PM IST
Nautical Twilight 6:20 AM IST 6:46 PM IST
Astronomical Twilight 5:51 AM IST 7:14 PM IST
Moon 11:23 PM IST 10:31 AM IST
Length of Visible Light 11h 28m
Length of Day
10h 38m
Waning Gibbous, 69% of the Moon is Illuminated
Jan 22
Waning Gibbous
Jan 24
Last Quarter
Jan 31
New
Feb 7
First Quarter
Feb 15
Full

Hourly Weather History & Observations

Time (IST) Temp. Dew Point Humidity Pressure Visibility Wind Dir Wind Speed Gust Speed Precip Events Conditions
12:00 AM 55.4 °F 55.4 °F 100% 30.09 in 0.6 mi East 4.6 mph - N/A Fog Shallow Fog
12:30 AM 55.4 °F 55.4 °F 100% 30.09 in 0.6 mi East 3.5 mph - N/A Fog Shallow Fog
1:00 AM 55.4 °F 55.4 °F 100% 30.09 in 0.6 mi East 3.5 mph - N/A Fog Shallow Fog
2:00 AM 55.4 °F 55.4 °F 100% 30.06 in 0.6 mi East 4.6 mph - N/A Fog Shallow Fog
2:30 AM 55.4 °F 55.4 °F 100% 30.06 in 0.6 mi East 5.8 mph - N/A Fog Shallow Fog
3:00 AM 55.4 °F 55.4 °F 100% 30.06 in 0.6 mi East 6.9 mph - N/A Fog Shallow Fog
3:30 AM 55.4 °F 55.4 °F 100% 30.06 in 0.6 mi East 5.8 mph - N/A   Mostly Cloudy
4:00 AM 55.4 °F 55.4 °F 100% 30.06 in 0.7 mi East 5.8 mph - N/A   Mostly Cloudy
4:30 AM 55.4 °F 55.4 °F 100% 30.06 in 0.6 mi ESE 3.5 mph - N/A Fog Shallow Fog
5:30 AM 57.2 °F 57.2 °F 100% 30.06 in 0.4 mi Calm Calm - N/A Fog Shallow Fog
6:00 AM 57.2 °F 57.2 °F 100% 30.06 in 0.4 mi Calm Calm - N/A Fog Shallow Fog
6:30 AM 57.2 °F 57.2 °F 100% 30.06 in 0.4 mi SE 3.5 mph - N/A Fog Shallow Fog
7:00 AM 57.2 °F 57.2 °F 100% 30.06 in 0.4 mi East 8.1 mph - N/A Fog Shallow Fog
7:30 AM 57.2 °F 57.2 °F 100% 30.09 in 0.4 mi SSE 3.5 mph - N/A Fog Shallow Fog
8:00 AM 57.2 °F 57.2 °F 100% 30.09 in 0.6 mi South 3.5 mph - N/A   Mostly Cloudy
8:30 AM 57.2 °F 57.2 °F 100% 30.12 in 0.7 mi South 4.6 mph - N/A   Mostly Cloudy
9:30 AM 59.0 °F 59.0 °F 100% 30.12 in 1.4 mi SSE 6.9 mph - N/A   Mostly Cloudy
10:00 AM 59.0 °F 59.0 °F 100% 30.12 in 1.6 mi SSE 4.6 mph - N/A   Mostly Cloudy
10:30 AM 59.0 °F 59.0 °F 100% 30.15 in 1.6 mi SSW 3.5 mph - N/A   Mostly Cloudy
11:00 AM 59.0 °F 59.0 °F 100% 30.15 in 1.4 mi West 3.5 mph - N/A Rain Light Rain
11:30 AM 60.8 °F 60.8 °F 100% 30.12 in 1.6 mi East 4.6 mph - N/A   Overcast
12:00 PM 60.8 °F 60.8 °F 100% 30.12 in 1.6 mi East 9.2 mph - N/A Rain Rain
12:30 PM 60.8 °F 60.8 °F 100% 30.09 in 1.6 mi ESE 9.2 mph - N/A   Overcast
1:00 PM 60.8 °F 60.8 °F 100% 30.09 in 1.6 mi SSE 5.8 mph - N/A   Drizzle
2:30 PM 62.6 °F 62.6 °F 100% 30.04 in 1.7 mi SSE 8.1 mph - N/A   Overcast
3:30 PM 62.6 °F 62.6 °F 100% 30.04 in 2.2 mi SE 9.2 mph - N/A   Light Drizzle
4:00 PM 62.6 °F 62.6 °F 100% 30.04 in 2.2 mi ESE 9.2 mph - N/A   Light Drizzle
4:30 PM 62.6 °F 60.8 °F 94% 30.04 in - ESE 8.1 mph - N/A   Light Drizzle
5:30 PM 60.8 °F 60.8 °F 100% 30.06 in 1.5 mi ESE 9.2 mph - N/A   Mostly Cloudy
6:00 PM 60.8 °F 60.8 °F 100% 30.06 in 1.4 mi East 9.2 mph - N/A   Mostly Cloudy
6:30 PM 60.8 °F 60.8 °F 100% 30.06 in 1.6 mi ESE 9.2 mph - N/A   Mostly Cloudy
7:00 PM 60.8 °F 59.0 °F 94% 30.09 in 1.7 mi ESE 10.4 mph - N/A   Mostly Cloudy
8:00 PM 60.8 °F 59.0 °F 94% 30.09 in 1.5 mi ESE 9.2 mph - N/A   Mostly Cloudy
8:30 PM 59.0 °F 57.2 °F 94% 30.12 in 1.5 mi ESE 9.2 mph - N/A   Mostly Cloudy
9:00 PM 59.0 °F 57.2 °F 94% 30.12 in 1.5 mi SE 9.2 mph - N/A   Mostly Cloudy
9:30 PM 59.0 °F 57.2 °F 94% 30.12 in 1.4 mi ESE 8.1 mph - N/A   Mostly Cloudy
10:00 PM 59.0 °F 57.2 °F 94% 30.12 in 1.4 mi ESE 6.9 mph - N/A   Mostly Cloudy
10:30 PM 59.0 °F 57.2 °F 94% 30.12 in 1.4 mi ESE 5.8 mph - N/A   Mostly Cloudy
11:00 PM 59.0 °F 57.2 °F 94% 30.15 in 1.2 mi SE 5.8 mph - N/A   Mostly Cloudy
11:30 PM 59.0 °F 57.2 °F 94% 30.15 in 1.1 mi SE 9.2 mph - N/A   Mostly Cloudy